Weather reports worldwide

Advertisment
Threave, United Kingdom (99090): temperature & dewpoint: 16.07.2019 03:00:00 - 22.07.2019 03:00:00 (BST)Threave, United Kingdom (99090): temperature -20cm & temperature -100cm: 16.07.2019 03:00:00 - 22.07.2019 03:00:00 (BST)Threave, United Kingdom (99090): precipitation: 16.07.2019 03:00:00 - 22.07.2019 03:00:00 (BST)
Date & Time tt [°C] td [°C] tt -20cm [°C] tt -100cm [°C] rr [mm]
22.07.2019 03:00:00 - - - - -
22.07.2019 02:00:00 17,5 16,9 - - 0,8
22.07.2019 01:00:00 16,9 16,3 - - 1,2
22.07.2019 00:00:00 16,6 16,1 - - 5,2
21.07.2019 23:00:00 15,7 15,1 - - 7,8
21.07.2019 22:00:00 15,5 14,9 - - 6,0
21.07.2019 21:00:00 15,6 15,0 - - 3,6
21.07.2019 20:00:00 15,4 14,8 - - 4,0
21.07.2019 19:00:00 15,3 14,6 - - 5,8
21.07.2019 18:00:00 15,5 14,6 - - 3,2
21.07.2019 17:00:00 16,3 14,5 - - 0,0
21.07.2019 16:00:00 16,1 14,5 - - 0,0
21.07.2019 15:00:00 16,0 13,9 - - 0,2
21.07.2019 14:00:00 17,0 13,9 - - 0,0
21.07.2019 13:00:00 17,0 13,4 - - 0,0
21.07.2019 12:00:00 16,9 13,2 - - 0,0
21.07.2019 11:00:00 15,9 12,8 - - 0,0
21.07.2019 10:00:00 17,1 12,6 17,4 14,4 0,0
21.07.2019 09:00:00 16,4 13,2 - - 0,0
21.07.2019 08:00:00 15,6 13,3 - - 0,0
21.07.2019 07:00:00 14,2 12,8 - - 0,0
21.07.2019 06:00:00 14,3 12,8 - - 0,0
21.07.2019 05:00:00 14,4 12,8 - - 0,0
21.07.2019 04:00:00 14,6 12,8 - - 0,0
21.07.2019 03:00:00 14,3 12,1 - - 0,0
21.07.2019 02:00:00 14,1 11,8 - - 0,0
21.07.2019 01:00:00 14,1 12,3 - - 0,0
21.07.2019 00:00:00 13,8 10,5 - - 0,0
20.07.2019 23:00:00 13,4 9,2 - - 0,0
20.07.2019 22:00:00 13,7 7,9 - - 0,0
20.07.2019 21:00:00 15,8 7,9 - - 0,0
20.07.2019 20:00:00 17,7 8,7 - - 0,0
20.07.2019 19:00:00 18,4 8,7 - - 0,0
20.07.2019 18:00:00 18,8 9,7 - - 0,0
20.07.2019 17:00:00 17,5 10,5 - - 0,0
20.07.2019 16:00:00 18,8 10,4 - - 0,0
20.07.2019 15:00:00 19,1 11,9 - - 0,0
20.07.2019 14:00:00 19,5 13,5 - - 0,0
20.07.2019 13:00:00 17,6 13,8 - - 0,0
20.07.2019 12:00:00 17,9 14,2 - - 0,0
20.07.2019 11:00:00 18,3 15,8 - - 0,0
20.07.2019 10:00:00 16,8 15,2 17,0 14,4 0,0
20.07.2019 09:00:00 16,1 15,7 - - 0,0
20.07.2019 08:00:00 15,1 14,7 - - 0,2
20.07.2019 07:00:00 14,8 14,4 - - 0,2
20.07.2019 06:00:00 14,8 14,3 - - 0,4
20.07.2019 05:00:00 14,9 14,4 - - 0,2
20.07.2019 04:00:00 15,0 14,6 - - 2,6
20.07.2019 03:00:00 15,1 14,7 - - 0,0
20.07.2019 02:00:00 15,3 14,8 - - 0,0
20.07.2019 01:00:00 15,3 14,8 - - 0,4
20.07.2019 00:00:00 15,4 14,9 - - 2,4
19.07.2019 23:00:00 15,4 14,8 - - 0,0
19.07.2019 22:00:00 15,4 14,8 - - 0,0
19.07.2019 21:00:00 15,4 14,9 - - 0,0
19.07.2019 20:00:00 15,7 15,1 - - 0,0
19.07.2019 19:00:00 15,5 14,9 - - 1,0
19.07.2019 18:00:00 15,4 14,7 - - 0,6
19.07.2019 17:00:00 15,6 14,4 - - 0,0
19.07.2019 16:00:00 16,0 14,1 - - 0,2
19.07.2019 15:00:00 15,7 13,7 - - 0,0
19.07.2019 14:00:00 16,0 14,2 - - 0,2
19.07.2019 13:00:00 14,9 13,7 - - 0,8
19.07.2019 12:00:00 14,5 13,3 - - 0,4
19.07.2019 11:00:00 15,8 13,1 - - 0,0
19.07.2019 10:00:00 16,0 12,4 17,2 14,4 0,0
19.07.2019 09:00:00 14,8 13,3 - - 0,0
19.07.2019 08:00:00 14,0 13,6 - - 0,0
19.07.2019 07:00:00 12,9 12,6 - - 0,0
19.07.2019 06:00:00 12,2 11,8 - - 0,0
19.07.2019 05:00:00 12,2 11,8 - - 0,0
19.07.2019 04:00:00 12,3 11,8 - - 0,0
19.07.2019 03:00:00 12,6 11,9 - - 0,2
19.07.2019 02:00:00 13,5 12,9 - - 0,8
19.07.2019 01:00:00 13,7 13,0 - - 0,6
19.07.2019 00:00:00 13,0 12,1 - - 0,0
18.07.2019 23:00:00 13,5 12,0 - - 0,0
18.07.2019 22:00:00 14,2 12,3 - - 0,0
18.07.2019 21:00:00 15,1 12,0 - - 0,0
18.07.2019 20:00:00 15,6 12,2 - - 0,0
18.07.2019 19:00:00 15,3 12,2 - - 0,0
18.07.2019 18:00:00 15,4 11,9 - - 0,0
18.07.2019 17:00:00 15,8 12,2 - - 0,0
18.07.2019 16:00:00 16,5 12,5 - - 0,0
18.07.2019 15:00:00 16,8 12,6 - - 0,0
18.07.2019 14:00:00 18,4 13,0 - - 0,0
18.07.2019 13:00:00 16,6 11,7 - - 0,0
18.07.2019 12:00:00 16,2 11,9 - - 0,0
18.07.2019 11:00:00 15,2 11,9 - - 0,0
18.07.2019 10:00:00 15,0 12,7 17,2 14,4 0,0
18.07.2019 09:00:00 14,2 12,7 - - 0,0
18.07.2019 08:00:00 13,4 12,7 - - 0,0
18.07.2019 07:00:00 12,3 11,9 - - 0,0
18.07.2019 06:00:00 11,7 11,4 - - 0,0
18.07.2019 05:00:00 11,0 10,6 - - 0,0
18.07.2019 04:00:00 10,9 10,6 - - 0,0
18.07.2019 03:00:00 9,6 9,0 - - 0,0
18.07.2019 02:00:00 11,0 10,1 - - 0,0
18.07.2019 01:00:00 12,4 11,4 - - 0,0
18.07.2019 00:00:00 13,6 12,9 - - 0,6
17.07.2019 23:00:00 14,8 14,2 - - 2,2
17.07.2019 22:00:00 14,7 14,0 - - 0,0
17.07.2019 21:00:00 14,7 14,1 - - 0,2
17.07.2019 20:00:00 14,5 13,9 - - 0,4
17.07.2019 19:00:00 14,5 13,8 - - 0,8
17.07.2019 18:00:00 14,7 14,0 - - 1,4
17.07.2019 17:00:00 14,8 13,9 - - 0,6
17.07.2019 16:00:00 14,8 13,7 - - 0,8
17.07.2019 15:00:00 14,8 13,6 - - 1,0
17.07.2019 14:00:00 15,8 13,9 - - 0,0
17.07.2019 13:00:00 15,8 14,5 - - 0,4
17.07.2019 12:00:00 15,8 14,1 - - 0,0
17.07.2019 11:00:00 15,7 13,8 - - 0,0
17.07.2019 10:00:00 16,2 13,8 18,2 14,4 0,0
17.07.2019 09:00:00 16,5 14,2 - - 0,0
17.07.2019 08:00:00 15,6 14,4 - - 0,0
17.07.2019 07:00:00 15,0 14,3 - - 0,0
17.07.2019 06:00:00 14,8 14,3 - - 0,0
17.07.2019 05:00:00 14,9 14,2 - - 0,0
17.07.2019 04:00:00 15,1 14,1 - - 0,0
17.07.2019 03:00:00 15,2 14,1 - - 0,0
17.07.2019 02:00:00 14,9 13,8 - - 0,0
17.07.2019 01:00:00 14,6 13,5 - - 0,0
17.07.2019 00:00:00 14,9 13,8 - - 0,0
16.07.2019 23:00:00 14,6 13,1 - - 0,0
16.07.2019 22:00:00 15,0 13,2 - - 0,0
16.07.2019 21:00:00 16,9 13,1 - - 0,0
16.07.2019 20:00:00 17,9 13,6 - - 0,0
16.07.2019 19:00:00 18,4 13,8 - - 0,0
16.07.2019 18:00:00 19,6 13,6 - - 0,0
16.07.2019 17:00:00 19,7 14,1 - - 0,0
16.07.2019 16:00:00 20,2 13,8 - - 0,0
16.07.2019 15:00:00 20,9 14,2 - - 0,0
16.07.2019 14:00:00 19,8 14,6 - - 0,0
16.07.2019 13:00:00 19,6 14,4 - - 0,0
16.07.2019 12:00:00 20,2 15,7 - - 0,0
16.07.2019 11:00:00 19,4 14,6 - - 0,0
16.07.2019 10:00:00 18,2 15,1 17,9 14,2 0,0
16.07.2019 09:00:00 16,3 15,9 - - 0,0
16.07.2019 08:00:00 14,2 14,0 - - 0,0
16.07.2019 07:00:00 12,9 12,7 - - 0,0
16.07.2019 06:00:00 11,9 11,6 - - 0,0
16.07.2019 05:00:00 11,6 11,4 - - 0,0
16.07.2019 04:00:00 11,6 11,3 - - 0,0
16.07.2019 03:00:00 11,2 10,9 - - 0,0

tt = temperature
td = dewpoint
tt -20cm = temperature -20cm
tt -100cm = temperature -100cm
rr = precipitation

Next stations